Flag for Germany Weather past 2 weeks in Crailsheim, Baden-Württemberg, Germany

Now
46 °F

Drizzle. Partly sunny.


Feels Like: 41 °F
Forecast: 44 / 50 °F
Wind: 10 mph from Southwest

Location: Niederstetten

Current Time: Dec 18, 2014 at 11:41:37 AM

Latest Report: Dec 18, 2014 at 10:20 AM


Visibility: 4 mi

Pressure: 29.98 "Hg

Humidity: 93%

Dew point: 45 °F

Location of CrailsheimLocation

Historic Weather in Crailsheim — Graph

°F

Crailsheim temperature yesterday

Maximum temperature yesterday: 41 °F (at 10:20 PM)
Minimum temperature yesterday: 32 °F (at 6:20 AM)
Average temperature yesterday: 36 °F

Past Weeks' High & Low Weather Summary

 TemperatureHumidityPressure
High50 °F (Dec 13, 11:20 AM)100% (Dec 3, 11:20 AM)30.39 "Hg (Dec 3, 11:20 AM)
Low28 °F (Dec 9, 6:20 AM)62% (Dec 13, 11:20 AM)29.68 "Hg (Dec 12, 2:20 PM)
Average37 °F93%30.00 "Hg
* Reported Dec 3 10:20 AM — Dec 18 10:20 AM, Crailsheim, Weather by CustomWeather, © 2014

Note: Actual official high and low records may vary slightly from our data, if they occured in-between our weather recording intervals... More about our weather records

Advertising

Crailsheim weather history for previous 24 hours

 ConditionsComfort  
Time TempWeatherWind HumidityBarometerVisibility
10:20 AM
Dec 18
46 °FDrizzle. Partly sunny.10 mph93%29.98 "Hg4 mi
10:03 AM45 °FDrizzle. Partly sunny.10 mph100%29.98 "Hg3 mi
9:20 AM45 °FDrizzle. Partly sunny.12 mph100%29.95 "Hg3 mi
8:20 AM45 °FMostly cloudy.12 mph93%29.95 "Hg4 mi
8:02 AM43 °FDrizzle. Mostly cloudy.10 mph100%29.95 "Hg4 mi
7:20 AM45 °FLow clouds.10 mph93%29.95 "Hg5 mi
6:45 AM43 °FDrizzle. Fog.7 mph100%29.95 "Hg1 mi
6:20 AM43 °FDrizzle. Fog.8 mph100%29.95 "Hg1 mi
5:20 AM43 °FDrizzle. Fog.10 mph100%29.95 "Hg1 mi
4:20 AM43 °FDrizzle. Fog.12 mph100%29.95 "Hg1 mi
3:20 AM43 °FDrizzle. Fog.13 mph100%29.95 "Hg1 mi
2:20 AM43 °FDrizzle. Fog.17 mph100%29.95 "Hg1 mi
1:20 AM41 °FDrizzle. Fog.18 mph100%29.92 "Hg1 mi
12:20 AM41 °FDrizzle. Fog.17 mph100%29.92 "Hg1 mi
11:20 PM
Dec 17
41 °FDrizzle. Fog.16 mph100%29.89 "Hg1 mi
10:20 PM41 °FDrizzle. Fog.16 mph93%29.86 "Hg1 mi
9:20 PM39 °FDrizzle. Fog.20 mph100%29.83 "Hg2 mi
8:20 PM39 °FDrizzle. Fog.18 mph100%29.83 "Hg2 mi
7:20 PM37 °FDrizzle. Low clouds.18 mph100%29.80 "Hg4 mi
6:20 PM37 °FDrizzle. Fog.17 mph100%29.77 "Hg2 mi
5:20 PM37 °FLight rain. Fog.14 mph93%29.77 "Hg2 mi
5:00 PM37 °FLight rain. Mostly cloudy.16 mph93%29.77 "Hg4 mi
4:20 PM36 °FLight rain. Mostly cloudy.13 mph100%29.74 "Hg6 mi
3:20 PM36 °FLight rain. Mostly cloudy.14 mph93%29.74 "HgN/A
2:20 PM37 °FLight rain. Mostly cloudy.15 mph93%29.74 "HgN/A
1:20 PM37 °FLight rain. Mostly cloudy.13 mph87%29.74 "HgN/A
12:20 PM37 °FLight rain. Mostly cloudy.13 mph87%29.80 "HgN/A
11:20 AM36 °FLight rain. Mostly cloudy.12 mph87%29.83 "HgN/A
Weather by CustomWeather, © 2014

See weather overviewHow to use our weather pages